GW6957 Weather Reports


time (UTC)temp
F
wind
direction
speed
knots
gust
knots
rain 1hr
in
rain 24hr
in
rain mn
in
humidity
%
barometer
mb
20260508190417 73 32 2.6 3.5 0.00 0.00 0.00 28 1014.2
20260508185917 74 198 0.9 0.9 0.00 0.00 0.00 31 1014.2
20260508185418 74 130 1.7 4.3 0.00 0.00 0.00 29 1014.2
20260508184917 71 146 2.6 5.2 0.00 0.00 0.00 30 1014.2
20260508184418 73 67 1.7 2.6 0.00 0.00 0.00 28 1014.2
20260508183920 73 132 2.6 2.6 0.00 0.00 0.00 29 1014.2
20260508183418 72 196 3.5 4.3 0.00 0.00 0.00 29 1014.6
20260508182918 72 241 2.6 2.6 0.00 0.00 0.00 32 1014.6
20260508182417 71 82 3.5 3.5 0.00 0.00 0.00 31 1014.6
20260508181919 71 161 1.7 2.6 0.00 0.00 0.00 31 1014.6
20260508181418 70 156 7.0 12.2 0.00 0.00 0.00 30 1014.6
20260508180918 72 120 4.3 6.1 0.00 0.00 0.00 30 1014.9
20260508180418 74 157 0.9 0.9 0.00 0.00 0.00 30 1014.9
20260508175918 74 96 0.9 0.9 0.00 0.00 0.00 29 1014.9
20260508175418 71 248 2.6 3.5 0.00 0.00 0.00 30 1014.9
20260508174917 74 274 1.7 2.6 0.00 0.00 0.00 28 1015.2
20260508174418 75 115 0.0 1.7 0.00 0.00 0.00 31 1015.2
20260508173918 72 248 0.9 2.6 0.00 0.00 0.00 33 1015.2
20260508173417 70 262 1.7 5.2 0.00 0.00 0.00 34 1015.2
20260508172917 69 142 3.5 5.2 0.00 0.00 0.00 33 1015.2
20260508172418 68 147 6.1 6.1 0.00 0.00 0.00 34 1015.2
20260508171918 71 155 7.8 7.8 0.00 0.00 0.00 31 1015.2
20260508171418 71 76 3.5 4.3 0.00 0.00 0.00 33 1015.2
20260508170918 71 129 3.5 4.3 0.00 0.00 0.00 35 1015.9
20260508170418 71 253 4.3 7.0 0.00 0.00 0.00 33 1015.9
20260508165920 70 163 3.5 6.1 0.00 0.00 0.00 35 1016.3
20260508165417 69 108 4.3 6.1 0.00 0.00 0.00 35 1016.3
20260508164917 68 61 2.6 2.6 0.00 0.00 0.00 35 1016.6
20260508164418 69 177 7.0 7.0 0.00 0.00 0.00 36 1016.6
20260508163918 68 185 3.5 3.5 0.00 0.00 0.00 36 1016.6
20260508163423 68 223 3.5 6.1 0.00 0.00 0.00 37 1016.6
20260508162917 69 109 1.7 1.7 0.00 0.00 0.00 37 1016.6
20260508162418 67 146 7.0 8.7 0.00 0.00 0.00 39 1016.9
20260508161920 68 244 1.7 4.3 0.00 0.00 0.00 38 1016.9
20260508161418 67 113 3.5 7.8 0.00 0.00 0.00 40 1016.9
20260508160917 68 223 4.3 7.0 0.00 0.00 0.00 38 1016.9
20260508160418 68 172 2.6 2.6 0.00 0.00 0.00 39 1016.9
20260508155919 69 213 0.9 0.9 0.00 0.00 0.00 38 1017.3
20260508155421 67 138 4.3 6.1 0.00 0.00 0.00 41 1017.3
20260508154918 65 108 4.3 7.0 0.00 0.00 0.00 39 1017.3
20260508154417 66 87 1.7 1.7 0.00 0.00 0.00 38 1017.3
20260508153918 66 90 0.9 1.7 0.00 0.00 0.00 39 1017.3
20260508153417 66 157 1.7 1.7 0.00 0.00 0.00 39 1017.3
20260508152917 65 174 1.7 1.7 0.00 0.00 0.00 38 1017.3
20260508152418 65 198 4.3 4.3 0.00 0.00 0.00 40 1017.3
20260508151917 66 204 2.6 2.6 0.00 0.00 0.00 45 1017.3
20260508151417 64 122 4.3 5.2 0.00 0.00 0.00 43 1017.3
20260508150917 63 146 1.7 2.6 0.00 0.00 0.00 44 1017.3
20260508150419 62 111 3.5 5.2 0.00 0.00 0.00 44 1017.3
20260508145917 62 117 4.3 4.3 0.00 0.00 0.00 43 1017.3
20260508145418 62 120 6.1 6.1 0.00 0.00 0.00 43 1017.3
20260508144918 62 169 2.6 2.6 0.01 0.00 0.00 48 1017.3
20260508144419 62 203 2.6 4.3 0.01 0.00 0.00 48 1017.3
20260508143918 62 154 0.9 1.7 0.01 0.00 0.00 47 1017.3
20260508143418 61 208 0.9 2.6 0.01 0.00 0.00 50 1016.9
20260508142917 61 120 2.6 2.6 0.01 0.00 0.00 49 1016.9
20260508142420 60 169 1.7 1.7 0.01 0.00 0.00 52 1017.3
20260508141918 60 270 2.6 3.5 0.01 0.00 0.00 49 1017.3
20260508141417 58 118 1.7 2.6 0.01 0.00 0.00 52 1017.3
20260508140919 57 122 1.7 1.7 0.01 0.00 0.00 55 1017.3
20260508140418 56 121 1.7 1.7 0.01 0.00 0.00 57 1017.3
20260508135917 55 164 1.7 1.7 0.01 0.00 0.00 62 1017.3
20260508135417 54 130 1.7 1.7 0.01 0.00 0.00 67 1017.3
20260508134917 53 173 0.9 0.9 0.00 0.00 0.00 68 1017.3
20260508134418 52 92 1.7 2.6 0.00 0.00 0.00 69 1017.3
20260508133922 49 185 0.9 0.9 0.00 0.00 0.00 78 1017.3
20260508133419 47 177 0.9 0.9 0.00 0.00 0.00 85 1017.3
20260508132917 46 203 0.0 0.9 0.00 0.00 0.00 99 1017.3
20260508132418 45 270 0.9 0.9 0.00 0.00 0.00 99 1017.3
20260508131917 44 286 0.0 0.0 0.00 0.00 0.00 99 1017.3
20260508131418 43 246 0.9 0.9 0.00 0.00 0.00 99 1017.3
20260508130917 43 212 0.0 0.9 0.00 0.00 0.00 99 1017.3
20260508130418 42 263 0.0 0.0 0.00 0.00 0.00 99 1017.3
20260508125917 41 255 0.0 0.0 0.00 0.00 0.00 99 1017.3
20260508125418 41 235 0.0 0.0 0.00 0.00 0.00 99 1017.3
20260508124918 40 256 0.9 0.9 0.00 0.00 0.00 99 1017.3
20260508124417 39 258 0.0 0.0 0.00 0.00 0.00 99 1017.3
20260508123918 39 270 0.9 0.9 0.00 0.00 0.00 99 1017.3
20260508123417 38 248 0.0 0.0 0.00 0.00 0.00 99 1017.3
20260508122917 37 270 0.9 0.9 0.00 0.00 0.00 99 1017.3
20260508122418 37 261 0.9 0.9 0.00 0.00 0.00 99 1017.3
20260508121918 37 238 0.0 0.0 0.00 0.00 0.00 99 1017.3
20260508121418 36 230 0.0 0.9 0.00 0.00 0.00 99 1017.3
20260508120917 36 240 0.0 0.0 0.00 0.00 0.00 99 1017.3
20260508120417 35 209 0.0 0.0 0.00 0.00 0.00 99 1017.3
20260508115918 35 224 0.0 0.0 0.00 0.00 0.00 99 1017.3
20260508115418 35 218 0.0 0.0 0.00 0.00 0.00 99 1017.3
20260508114918 34 216 0.0 0.0 0.00 0.00 0.00 99 1017.3
20260508114417 34 221 0.0 0.0 0.00 0.00 0.00 99 1017.3
20260508113920 34 223 0.0 0.0 0.00 0.00 0.00 99 1017.3
20260508113417 34 221 0.0 0.0 0.00 0.00 0.00 99 1017.3
20260508112917 34 220 0.0 0.0 0.00 0.00 0.00 99 1017.3
20260508112419 33 219 0.0 0.0 0.00 0.00 0.00 99 1016.9
20260508111918 33 220 0.0 0.0 0.00 0.00 0.00 99 1016.9
20260508111417 33 218 0.0 0.0 0.00 0.00 0.00 99 1016.9
20260508110918 33 222 0.0 0.0 0.00 0.00 0.00 99 1016.9
20260508110417 33 212 0.0 0.0 0.00 0.00 0.00 99 1016.9
20260508105918 33 226 0.0 0.0 0.00 0.00 0.00 99 1016.9
20260508105417 33 212 0.0 0.0 0.00 0.00 0.00 99 1016.9
20260508104917 33 217 0.0 0.0 0.00 0.00 0.00 99 1016.9
20260508104418 32 219 0.0 0.0 0.00 0.00 0.00 99 1016.9
20260508103917 33 210 0.0 0.0 0.00 0.00 0.00 99 1016.9
20260508103417 32 217 0.0 0.0 0.00 0.00 0.00 99 1016.9
20260508102917 32 218 0.0 0.0 0.00 0.00 0.00 99 1016.9
20260508102417 33 217 0.0 0.0 0.00 0.00 0.00 99 1016.6
20260508101919 33 217 0.0 0.0 0.00 0.00 0.00 99 1016.6
20260508101417 32 218 0.0 0.0 0.00 0.00 0.00 99 1016.6
20260508100919 33 223 0.0 0.0 0.00 0.00 0.00 99 1016.6
20260508100417 33 217 0.0 0.0 0.00 0.00 0.00 99 1016.6
20260508095917 33 221 0.0 0.0 0.00 0.00 0.00 99 1016.6
20260508095419 32 223 0.0 0.0 0.00 0.00 0.00 99 1016.6
20260508094919 33 223 0.0 0.0 0.00 0.00 0.00 99 1016.9
20260508094417 33 224 0.0 0.0 0.00 0.00 0.00 99 1016.9
20260508093918 33 224 0.0 0.0 0.00 0.00 0.00 99 1016.9
20260508093417 33 223 0.0 0.0 0.00 0.00 0.00 99 1016.6
20260508092918 33 224 0.0 0.0 0.00 0.00 0.00 99 1016.6
20260508092417 33 224 0.0 0.0 0.00 0.00 0.00 99 1016.6
20260508091918 33 224 0.0 0.0 0.00 0.00 0.00 99 1016.6
20260508091417 33 224 0.0 0.0 0.00 0.00 0.00 99 1016.6
20260508090919 33 224 0.0 0.0 0.00 0.00 0.00 99 1016.6
20260508090418 33 224 0.0 0.0 0.00 0.00 0.00 99 1016.6
20260508085918 33 224 0.0 0.0 0.00 0.00 0.00 99 1016.6
20260508085417 33 225 0.0 0.0 0.00 0.00 0.00 99 1016.6
20260508084917 33 225 0.0 0.0 0.00 0.00 0.00 99 1016.6
20260508084417 33 226 0.0 0.0 0.00 0.00 0.00 99 1016.6
20260508083918 33 218 0.0 0.0 0.00 0.00 0.00 99 1016.6
20260508083417 33 217 0.0 0.0 0.00 0.00 0.00 99 1016.6
20260508082917 33 218 0.0 0.0 0.00 0.00 0.00 99 1016.6
20260508082418 33 219 0.0 0.0 0.00 0.00 0.00 99 1016.6
20260508081918 33 216 0.0 0.0 0.00 0.00 0.00 99 1016.6
20260508081417 33 217 0.0 0.0 0.00 0.00 0.00 99 1016.6
20260508080918 34 220 0.0 0.0 0.00 0.00 0.00 99 1016.6
20260508080417 33 212 0.0 0.0 0.00 0.00 0.00 99 1016.6
20260508075917 34 218 0.0 0.0 0.00 0.00 0.00 99 1016.6
20260508075419 34 220 0.0 0.0 0.00 0.00 0.00 99 1016.6
20260508074918 34 211 0.0 0.0 0.00 0.00 0.00 99 1016.6
20260508074418 34 204 0.0 0.0 0.00 0.00 0.00 99 1016.6
20260508073918 34 217 0.0 0.0 0.00 0.00 0.00 99 1016.6
20260508073418 34 224 0.0 0.0 0.00 0.00 0.00 99 1016.6
20260508072918 33 220 0.0 0.0 0.00 0.00 0.00 99 1016.6
20260508072417 34 210 0.0 0.0 0.00 0.00 0.00 99 1016.6
20260508071917 34 218 0.0 0.0 0.00 0.00 0.00 99 1016.6
20260508071418 34 219 0.0 0.0 0.00 0.00 0.00 99 1016.6
20260508070917 34 218 0.0 0.0 0.00 0.00 0.00 99 1016.6
20260508070418 34 218 0.0 0.0 0.00 0.00 0.00 99 1016.6
20260508065917 34 218 0.0 0.0 0.00 0.00 0.00 99 1016.6
20260508065418 35 218 0.0 0.0 0.00 0.00 0.00 99 1016.6
20260508064917 35 220 0.0 0.0 0.00 0.00 0.00 99 1016.6
20260508064418 35 219 0.0 0.0 0.00 0.00 0.00 99 1016.6
20260508063917 35 220 0.0 0.0 0.00 0.00 0.00 99 1016.6
20260508063418 34 218 0.0 0.0 0.00 0.00 0.00 99 1016.6
20260508062917 35 219 0.0 0.0 0.00 0.00 0.00 99 1016.6
20260508062422 34 220 0.0 0.0 0.00 0.00 0.00 99 1016.6
20260508061917 35 218 0.0 0.0 0.00 0.00 0.00 99 1016.6
20260508061417 35 212 0.0 0.0 0.00 0.00 0.00 99 1016.6
20260508060918 35 222 0.0 0.0 0.00 0.00 0.00 99 1016.6
20260508060418 35 218 0.0 0.0 0.00 0.00 0.00 99 1016.6
20260508055917 35 227 0.0 0.0 0.00 0.00 0.00 99 1016.6
20260508055418 35 209 0.0 0.0 0.00 0.00 0.00 99 1016.6
20260508054918 35 217 0.0 0.0 0.00 0.00 0.00 99 1016.6
20260508054417 36 214 0.0 0.0 0.00 0.00 0.00 99 1016.9
20260508053917 36 214 0.0 0.0 0.00 0.00 0.00 99 1016.9
20260508053417 36 214 0.0 0.0 0.00 0.00 0.00 99 1016.6
20260508052918 36 214 0.0 0.0 0.00 0.00 0.00 99 1016.6
20260508052418 36 211 0.0 0.0 0.00 0.00 0.00 99 1016.6
20260508051917 36 210 0.0 0.0 0.00 0.00 0.00 99 1016.6
20260508051419 36 214 0.0 0.0 0.00 0.00 0.00 99 1016.6
20260508050917 36 214 0.0 0.0 0.00 0.00 0.00 99 1016.6
20260508050417 36 214 0.0 0.0 0.00 0.00 0.00 99 1016.6
20260508045918 36 214 0.0 0.0 0.00 0.00 0.00 99 1016.6
20260508045417 36 214 0.0 0.0 0.00 0.00 0.00 99 1016.6
20260508044917 36 214 0.0 0.0 0.00 0.00 0.00 99 1016.6
20260508044418 36 214 0.0 0.0 0.00 0.00 0.00 99 1016.3
20260508043918 37 211 0.0 0.0 0.00 0.00 0.00 99 1016.3
20260508043418 37 205 0.0 0.0 0.00 0.00 0.00 99 1016.3
20260508042917 37 220 0.0 0.0 0.00 0.00 0.00 99 1016.3
20260508042417 37 226 0.0 0.0 0.00 0.00 0.00 99 1016.6
20260508041917 37 220 0.0 0.0 0.00 0.00 0.00 99 1016.6
20260508041419 37 220 0.0 0.0 0.00 0.00 0.00 99 1016.6
20260508040918 37 220 0.0 0.0 0.00 0.00 0.00 99 1016.3
20260508040418 37 220 0.0 0.0 0.00 0.00 0.00 99 1016.3
20260508035917 37 220 0.0 0.0 0.00 0.00 0.00 99 1016.6
20260508035417 37 220 0.0 0.0 0.00 0.00 0.00 99 1016.6
20260508034917 38 221 0.0 0.0 0.00 0.00 0.00 99 1016.6
20260508034418 38 221 0.0 0.0 0.00 0.00 0.00 99 1016.3
20260508033919 38 221 0.0 0.0 0.00 0.00 0.00 99 1016.3
20260508033417 38 220 0.0 0.0 0.00 0.00 0.00 99 1016.3
20260508032917 38 221 0.0 0.0 0.00 0.00 0.00 99 1016.3
20260508032418 38 221 0.0 0.0 0.00 0.00 0.00 99 1016.3
20260508031918 39 215 0.0 0.0 0.00 0.00 0.00 98 1016.3
20260508031419 39 215 0.0 0.0 0.00 0.00 0.00 98 1016.3
20260508030917 39 215 0.0 0.0 0.00 0.00 0.00 98 1016.3
20260508030418 39 215 0.0 0.0 0.00 0.00 0.00 98 1016.3
20260508025917 39 215 0.0 0.0 0.00 0.00 0.00 98 1016.3
20260508025418 39 213 0.0 0.0 0.00 0.00 0.00 97 1016.3
20260508024917 39 221 0.0 0.0 0.00 0.00 0.00 97 1016.3
20260508024417 40 224 0.0 0.0 0.00 0.00 0.00 97 1015.9
20260508023918 40 215 0.0 0.0 0.00 0.00 0.00 97 1015.9
20260508023417 40 214 0.0 0.0 0.00 0.00 0.00 96 1015.9
20260508022918 40 220 0.0 0.0 0.00 0.00 0.00 96 1015.9
20260508022417 40 221 0.0 0.0 0.00 0.00 0.00 96 1015.2
20260508021917 40 220 0.0 0.0 0.00 0.00 0.00 95 1015.2
20260508021417 41 220 0.0 0.0 0.00 0.00 0.00 95 1015.2
20260508020917 41 220 0.0 0.0 0.00 0.00 0.00 94 1015.2
20260508020418 41 220 0.0 0.0 0.00 0.00 0.00 94 1015.2
20260508015917 41 213 0.0 0.0 0.00 0.00 0.00 92 1014.9
20260508015418 41 219 0.0 0.0 0.00 0.00 0.00 93 1014.9
20260508014917 42 205 0.0 0.0 0.00 0.00 0.00 93 1014.9
20260508014418 42 219 0.0 0.0 0.00 0.00 0.00 92 1014.9
20260508013918 42 219 0.0 0.0 0.00 0.00 0.00 91 1014.9
20260508013418 42 216 0.0 0.0 0.00 0.00 0.00 90 1014.6
20260508012918 43 218 0.0 0.0 0.00 0.00 0.00 89 1014.6
20260508012419 43 217 0.0 0.0 0.00 0.00 0.00 89 1014.6
20260508011917 43 216 0.0 0.0 0.00 0.00 0.00 88 1014.6
20260508011418 44 216 0.0 0.0 0.00 0.00 0.00 86 1014.6
20260508010917 44 222 0.0 0.0 0.00 0.00 0.00 85 1014.6
20260508010417 44 215 0.0 0.0 0.00 0.00 0.00 84 1014.6
20260508005919 45 229 0.0 0.0 0.00 0.00 0.00 82 1014.2
20260508005418 45 211 0.0 0.0 0.00 0.00 0.00 81 1014.2
20260508004918 46 211 0.0 0.0 0.00 0.00 0.00 80 1014.2
20260508004418 46 208 0.0 0.0 0.00 0.00 0.00 78 1014.2
20260508003918 47 216 0.0 0.0 0.00 0.00 0.00 78 1014.2
20260508003417 47 205 0.0 0.0 0.00 0.00 0.00 75 1014.2
20260508002921 48 215 0.0 0.0 0.00 0.00 0.00 75 1014.2
20260508002418 49 213 0.0 0.0 0.00 0.00 0.00 74 1014.2
20260508001917 49 218 0.0 0.0 0.00 0.00 0.00 73 1014.2
20260508001417 49 218 0.0 0.0 0.00 0.00 0.00 70 1014.2
20260508000918 50 213 0.0 0.0 0.00 0.00 0.00 71 1014.2
20260508000419 51 180 0.0 0.0 0.00 0.00 0.00 69 1014.2
20260507235918 51 223 0.0 0.9 0.00 0.00 0.00 66 1014.2
20260507235417 52 218 0.0 0.0 0.00 0.00 0.00 67 1014.2
20260507234917 53 218 0.0 0.0 0.00 0.00 0.00 65 1014.2
20260507234417 54 270 0.9 0.9 0.00 0.00 0.00 58 1014.2
20260507233917 54 248 0.9 0.9 0.00 0.00 0.00 55 1014.2
20260507233417 55 304 0.9 0.9 0.00 0.00 0.00 55 1013.9
20260507232917 55 234 0.0 0.0 0.00 0.00 0.00 55 1013.9
20260507232418 55 115 0.0 0.9 0.00 0.00 0.00 53 1013.5
20260507231917 56 96 0.0 0.9 0.00 0.00 0.00 54 1013.5
20260507231418 56 308 1.7 1.7 0.00 0.00 0.00 52 1013.5
20260507230918 57 342 0.9 0.9 0.00 0.00 0.00 49 1013.9
20260507230417 57 310 0.9 0.9 0.00 0.00 0.00 51 1013.9
20260507225918 59 111 0.9 0.9 0.00 0.00 0.00 41 1013.9
20260507225418 59 277 1.7 1.7 0.00 0.00 0.00 44 1013.9
20260507224917 59 182 0.0 0.0 0.00 0.00 0.00 46 1014.2
20260507224417 60 211 0.9 0.9 0.00 0.00 0.00 42 1014.2
20260507223918 61 203 0.9 1.7 0.00 0.00 0.00 40 1014.2
20260507223418 62 128 0.9 1.7 0.00 0.00 0.00 41 1013.9
20260507222919 61 2 4.3 4.3 0.00 0.00 0.00 42 1013.9
20260507222418 62 152 0.9 4.3 0.00 0.00 0.00 40 1013.9
20260507221917 61 78 1.7 1.7 0.00 0.00 0.00 45 1013.9
20260507221417 62 338 3.5 3.5 0.00 0.00 0.00 39 1013.9
20260507220918 63 216 0.0 1.7 0.00 0.00 0.00 40 1013.5
20260507220417 63 210 0.9 0.9 0.00 0.00 0.00 38 1013.5
20260507215917 63 163 2.6 4.3 0.00 0.00 0.00 38 1013.5
20260507215417 63 296 1.7 2.6 0.00 0.00 0.00 39 1013.5
20260507214917 64 358 2.6 4.3 0.00 0.00 0.00 36 1013.5
20260507214417 66 157 1.7 2.6 0.00 0.00 0.00 36 1013.5
20260507213917 68 3 1.7 2.6 0.00 0.00 0.00 35 1013.5
20260507213418 71 124 0.0 0.0 0.00 0.00 0.00 32 1013.2
20260507212919 70 106 1.7 5.2 0.00 0.00 0.00 35 1013.2
20260507212417 69 263 0.0 0.0 0.00 0.00 0.00 38 1013.2
20260507211917 69 137 3.5 8.7 0.00 0.00 0.00 33 1013.2
20260507211419 72 221 0.9 0.9 0.00 0.00 0.00 32 1013.2
20260507210918 71 244 0.0 0.9 0.00 0.00 0.00 38 1013.2
20260507210422 70 194 1.7 5.2 0.00 0.00 0.00 34 1013.2
20260507205917 71 172 1.7 2.6 0.00 0.00 0.00 35 1013.2
20260507205419 67 146 5.2 6.1 0.00 0.00 0.00 39 1013.2
20260507204918 67 75 5.2 5.2 0.00 0.00 0.00 35 1013.2
20260507204418 69 149 2.6 2.6 0.00 0.00 0.00 39 1013.2
20260507203917 68 83 0.9 1.7 0.00 0.00 0.00 37 1013.2
20260507203418 69 187 3.5 5.2 0.00 0.00 0.00 40 1013.2
20260507202918 67 344 0.9 1.7 0.00 0.00 0.00 40 1013.2
20260507202417 66 167 2.6 4.3 0.00 0.00 0.00 38 1013.2
20260507201918 71 79 3.5 5.2 0.00 0.00 0.00 39 1013.2
20260507201417 68 168 2.6 6.1 0.00 0.00 0.00 39 1013.2
20260507200917 71 169 0.9 2.6 0.00 0.00 0.00 34 1013.2
20260507200418 69 194 1.7 5.2 0.00 0.00 0.00 42 1013.2
20260507195919 70 54 1.7 1.7 0.00 0.00 0.00 36 1013.2
20260507195418 71 232 4.3 6.1 0.00 0.00 0.00 34 1013.2
20260507194917 73 216 1.7 3.5 0.00 0.00 0.00 35 1013.5
20260507194418 70 254 0.9 2.6 0.00 0.00 0.00 36 1013.5
20260507193918 67 217 0.9 1.7 0.00 0.00 0.00 42 1013.5
20260507193418 71 230 0.9 2.6 0.00 0.00 0.00 35 1013.2
20260507192917 68 83 3.5 4.3 0.00 0.00 0.00 37 1013.2
20260507192417 73 208 0.9 2.6 0.00 0.00 0.00 34 1013.2
20260507191918 71 185 1.7 5.2 0.00 0.00 0.00 38 1013.2
20260507191417 67 309 1.7 2.6 0.00 0.00 0.00 38 1013.2
20260507190920 67 126 5.2 7.0 0.00 0.00 0.00 39 1013.2